FW0887 Weather Reports


Display with metric or nautical units.
time (UTC)temp
F
wind
direction
speed
MPH
gust
MPH
rain 1hr
in
rain 24hr
in
rain mn
in
humidity
%
barometer
mb
20260505013052 59 198 1.0 2.0 0.00 0.00 0.00 74 1009.3
20260505012007 60 0.0 0.0 0.00 0.00 0.00 71 1010.5
20260505011541 60 205 1.0 4.0 0.00 0.00 0.00 73 1009.2
20260505010038 60 329 0.0 3.0 0.00 0.00 0.00 71 1009.0
20260505004546 60 75 0.0 1.0 0.00 0.00 0.00 69 1009.2
20260505003035 60 75 0.0 1.0 0.00 0.00 0.00 67 1009.3
20260505001946 61 0.0 0.0 0.00 0.00 0.00 67 1011.0
20260505001533 60 75 0.0 1.0 0.00 0.00 0.00 67 1009.5
20260505000047 60 76 0.0 0.0 0.00 0.00 0.00 67 1009.6
20260504234530 60 76 0.0 0.0 0.00 0.00 0.00 67 1009.7
20260504233028 61 76 0.0 2.0 0.00 0.00 0.00 67 1009.8
20260504231857 62 0.0 0.0 0.00 0.00 0.00 64 1011.4
20260504231530 61 76 0.0 1.0 0.00 0.00 0.00 67 1009.9
20260504230025 61 76 0.0 2.0 0.00 0.00 0.00 64 1010.0
20260504224522 61 76 0.0 0.0 0.00 0.00 0.00 65 1010.1
20260504223022 62 76 0.0 0.0 0.00 0.00 0.00 64 1010.2
20260504221933 62 0.0 0.0 0.00 0.00 0.00 64 1011.7
20260504221520 62 76 0.0 0.0 0.00 0.00 0.00 64 1010.3
20260504220019 62 76 0.0 0.0 0.00 0.00 0.00 64 1010.3
20260504214519 62 76 0.0 0.0 0.00 0.00 0.00 64 1010.3
20260504213018 62 76 0.0 0.0 0.00 0.00 0.00 64 1010.4
20260504211908 63 0.0 0.0 0.00 0.00 0.00 63 1011.7
20260504211518 62 76 0.0 0.0 0.00 0.00 0.00 64 1010.4
20260504210022 62 77 0.0 0.0 0.00 0.00 0.00 62 1010.5
20260504204517 63 77 0.0 0.0 0.00 0.00 0.00 61 1010.6
20260504203016 63 77 0.0 0.0 0.00 0.00 0.00 63 1010.6
20260504201840 65 0.0 0.0 0.00 0.00 0.00 58 1011.9
20260504201515 64 77 0.0 0.0 0.00 0.00 0.00 60 1010.7
20260504200015 64 77 0.0 0.0 0.00 0.00 0.00 57 1010.6
20260504194515 65 76 0.0 0.0 0.00 0.00 0.00 57 1010.6
20260504193015 65 76 0.0 0.0 0.00 0.00 0.00 56 1010.6
20260504191823 67 0.0 1.0 0.00 0.00 0.00 54 1011.8
20260504191514 66 76 0.0 1.0 0.00 0.00 0.00 55 1010.5
20260504190014 66 76 2.0 3.0 0.00 0.00 0.00 53 1010.5
20260504184515 67 27 0.0 1.0 0.00 0.00 0.00 55 1010.4
20260504183013 68 27 0.0 2.0 0.00 0.00 0.00 53 1010.4
20260504181919 69 23 1.0 2.0 0.00 0.00 0.00 51 1011.5
20260504181512 68 27 0.0 2.0 0.00 0.00 0.00 52 1010.4
20260504180012 70 27 0.0 2.0 0.00 0.00 0.00 50 1010.4
20260504174511 71 321 0.0 2.0 0.00 0.00 0.00 45 1010.3
20260504173010 71 321 0.0 2.0 0.00 0.00 0.00 43 1010.4
20260504172012 72 315 1.0 2.0 0.00 0.00 0.00 41 1011.9
20260504171508 71 321 0.0 3.0 0.00 0.00 0.00 43 1010.5
20260504081548 67 248 2.0 3.0 0.00 0.00 0.00 56 1015.7
20260504081509 67 250 0.0 4.0 0.00 0.00 0.00 54 1014.3
20260504044540 57 209 0.0 1.0 0.00 0.00 0.00 69 1013.8
20260504043041 57 209 0.0 0.0 0.00 0.00 0.00 69 1013.8
20260504041543 58 203 1.0 1.0 0.00 0.00 0.00 69 1015.3
20260504041539 57 209 0.0 1.0 0.00 0.00 0.00 68 1013.6
20260504040044 57 209 0.0 0.0 0.00 0.00 0.00 68 1013.7
20260504034542 57 208 0.0 1.0 0.00 0.00 0.00 67 1013.8
20260504033039 58 209 0.0 1.0 0.00 0.00 0.00 67 1014.0
20260504031833 58 0.0 0.0 0.00 0.00 0.00 67 1015.7
20260504031543 58 208 0.0 2.0 0.00 0.00 0.00 66 1013.9
20260504030036 58 208 0.0 2.0 0.00 0.00 0.00 67 1014.1
20260504024534 59 248 1.0 3.0 0.00 0.00 0.00 65 1014.0
20260504023033 59 248 0.0 2.0 0.00 0.00 0.00 64 1013.9
20260504021704 61 248 1.0 2.0 0.00 0.00 0.00 62 1015.5
20260504021532 60 248 1.0 3.0 0.00 0.00 0.00 63 1013.7
20260504020029 60 268 0.0 0.0 0.00 0.00 0.00 61 1013.3
20260504014528 61 269 0.0 4.0 0.00 0.00 0.00 61 1013.3